Location: Berlin
(38.3226°N, 75.2177°W)
Time: 22:39:35
(UTC+00:00)

NOSS 3-3 (A) - Pass Details

Date: 26 October 2020
Orbit: 826 x 1387 km, 63.4° (Epoch: 22 November)

Event Time Altitude Azimuth Distance (km) Brightness Sun altitude
Rises 00:31:53 0° 225° (SW) 3,384 7.3 -28.6°
Reaches altitude 10° 00:34:18 10° 230° (SW) 2,486 6.6 -29.1°
Maximum altitude 00:39:54 55° 308° (NW) 1,090 4.4 -30.2°
Enters shadow 00:41:53 39° 2° (N) 1,377 4.7 -30.6°
